Regional Weather Roundup
Issued by NWS

Home | Current Version | Previous Version | Graphics & Text | Print | Product List | Glossary On
Versions: 1 2 3 4 5 6 7 8 9 10 11 12 13 14 15 16 17 18 19 20 21 22 23 24 25 26 27 28 29 30 31 32 33 34 35 36 37 38 39 40 41 42 43 44 45 46 47 48 49 50
000
ASUS43 KDMX 291608
RWRIA

WEATHER ROUNDUP FOR IOWA
NATIONAL WEATHER SERVICE DES MOINES IA
1100 AM CDT FRI JUL 29 2016

NOTE: "FAIR" INDICATES FEW OR NO CLOUDS BELOW 12,000 FEET WITH NO
SIGNIFICANT WEATHER AND/OR OBSTRUCTIONS TO VISIBILITY.

* - THESE STATIONS ARE NOT NWS STATIONS...THUS NOT UNDER NWS
QUALITY CONTROL.  THEY ALSO DO NOT REPORT WEATHER SUCH
AS PRECIPITATION OR FOG.

IAZ001>003-012>014-020>022-031>034-043>046-291700-
   NORTHWEST IOWA

CITY           SKY/WX    TMP DP  RH WIND       PRES   REMARKS
CARROLL *      CLOUDY    72  63  73 N12G20    30.05F
CHEROKEE *     MOSUNNY   71  63  76 NE6       30.08S
DENISON *      MOSUNNY   73  63  68 N9        30.05F
LE MARS *      MOSUNNY   73  61  64 VRB6      30.10S
SHELDON *      CLOUDY    72  61  68 NE7G14    30.09R
SIOUX CITY     PTSUNNY   74  60  61 VRB3      30.08S
SPENCER        CLOUDY    70  61  73 NE6       30.09S
STORM LAKE *   MOSUNNY   68  63  83 NE8       30.09R
$$

IAZ055>058-069>071-079>083-090>094-291700-
   SOUTHWEST IOWA

CITY           SKY/WX    TMP DP  RH WIND       PRES   REMARKS
ATLANTIC *     CLOUDY    72  64  78 N8        30.04F
CLARINDA *       N/A     73  63  68 MISG      30.07S
COUNCIL BLFS * CLOUDY    72  63  73 VRB5      30.07S
CRESTON *      CLOUDY    72  63  73 N14       30.05S
HARLAN  *      PTSUNNY   72  63  73 NW9       30.09F
LAMONI         MOSUNNY   73  64  73 N12       30.02S
RED OAK *      CLOUDY    72  64  78 N9        30.06S
SHENANDOAH *   CLOUDY    73  66  78 NE7       30.06S
$$

IAZ047>049-059>061-072>074-084-291700-
   CENTRAL IOWA

CITY           SKY/WX    TMP DP  RH WIND       PRES   REMARKS
AMES           CLOUDY    67  64  90 N10       30.02F
ANKENY *         N/A    N/A N/A N/A MISG        N/A
BOONE *        CLOUDY    66  63  88 NW12      30.03S
CHARITON *       N/A    N/A N/A N/A MISG        N/A
DES MOINES     CLOUDY    70  63  78 N12       30.00F
GRINNELL*      CLOUDY    68  64  86 NW8       30.00F
KNOXVILLE *    CLOUDY    68  63  83 NW10      29.99F
MARSHALLTOWN   CLOUDY    66  65  96 NW8       30.00F
NEWTON *       CLOUDY    68  66  94 NW8G14    29.99F
PELLA *        CLOUDY    70  63  79 NW7       30.01S
PERRY *        CLOUDY    68  65  89 NW9       30.04S
$$

IAZ004>006-015-016-023>025-035-036-291700-
   NORTH CENTRAL IOWA

CITY           SKY/WX    TMP DP  RH WIND       PRES   REMARKS
ALGONA *       CLOUDY    68  63  83 NE9       30.07R
ESTHERVILLE      N/A     70  62  76 N6        30.08F
FORT DODGE *   CLOUDY    64  61  88 N6        30.06S
MASON CITY     LGT RAIN  65  60  84 NE9       30.07R
FOREST CITY *  CLOUDY    64  63  94 N5        30.06R
IOWA FALLS *   CLOUDY    66  63  90 N5        30.04S
$$

IAZ007>011-017>019-026>030-037>042-050>054-066-291700-
   NORTHEAST IOWA

CITY           SKY/WX    TMP DP  RH WIND       PRES   REMARKS
CEDAR RAPIDS   CLOUDY    70  69  97 NW3       29.96F FOG
CHARLES CITY * CLOUDY    66  64  94 NE8       30.04R
CLINTON *      CLOUDY    72  69  90 NE6       29.96S
DECORAH *      CLOUDY    63  63 100 NE6       30.02R
DUBUQUE        CLOUDY    68  65  90 NE8       29.99R
MONTICELLO *   CLOUDY    68  64  88 NE5       29.98R
OELWEIN *      CLOUDY    66  64  94 NE9       30.01S
WATERLOO       CLOUDY    68  63  84 NE10      29.99S
$$

IAZ064-065-067-068-078-291700-
   EAST CENTRAL IOWA

CITY           SKY/WX    TMP DP  RH WIND       PRES   REMARKS
DAVENPORT      CLOUDY    71  68  90 N5        29.96S FOG
IOWA CITY      CLOUDY    71  67  87 W5        29.98S
MT. PLEASANT * CLOUDY    72  69  93 W8        29.98S
MUSCATINE *    CLOUDY    72  68  88 NW7       29.96S
QUAD CITIES    CLOUDY    77  68  73 W7        29.94S
$$

IAZ062-063-075>077-085>089-095>099-291700-
   SOUTHEAST IOWA

CITY           SKY/WX    TMP DP  RH WIND       PRES   REMARKS
BURLINGTON     CLOUDY    69  66  90 W7        29.97S
FAIRFIELD *    CLOUDY    70  64  83 W8        29.98F
KEOKUK *       CLOUDY    73  64  73 NW8       29.98R
CENTERVILLE *  PTSUNNY   70  64  83 NW6       30.03S
OTTUMWA        CLOUDY    68  64  87 NW8       29.99S
WASHINGTON *   CLOUDY    72  66  83 NW6       29.98F
$$

ABBREVIATIONS USED IN REMARKS
   TC - TEMPERATURES IN CELSIUS
  WCI - WIND CHILL INDEX
   HX - HEAT INDEX
  VSB - VISIBILITY
$$





USA.gov is the U.S. government's official web portal to all federal, state and local government web resources and services.